Terminal Aerodrome Forecast
Issued by NWS

Home | Current Version | Previous Version | Text Only | Print | Product List | Glossary On
Versions: 1 2 3 4 5 6 7 8 9 10 11 12 13 14
000
FTAK31 PAJN 311100
TAFAYA
TAF
PAYA 311140Z 3112/0112 00000KT P6SM VCFG FEW001
      TEMPO 3112/3116 1/2SM FG VV001
     FM311800 VRB03KT P6SM SCT100
     FM312100 25005KT P6SM SCT150
     FM010600 00000KT P6SM SCT120
     FM010800 00000KT 4SM BR VCFG FEW002 SCT120
      TEMPO 0108/0112 1/2SM FG VV001
      AMD LTD TO CLD VIS AND WIND 0101/0110=

USA.gov is the U.S. government's official web portal to all federal, state and local government web resources and services.